Regional Weather Roundup
Issued by NWS

Home | Current Version | Previous Version | Graphics & Text | Print | Product List | Glossary On
Versions: 1 2 3 4 5 6 7 8 9 10 11 12 13 14 15 16 17 18 19 20 21 22 23 24 25 26 27 28 29 30 31 32 33 34 35 36 37 38 39 40 41 42 43 44 45 46 47 48 49 50
184
ASUS45 KPSR 301210
RWRAZ

ARIZONA HOURLY REGIONAL WEATHER ROUNDUP
NATIONAL WEATHER SERVICE PHOENIX AZ
500 AM MST SAT APR 30 2016

NOTE: FAIR INDICATES FEW OR NO CLOUDS BELOW 12,000 FEET WITH NO
SIGNIFICANT WEATHER AND/OR OBSTRUCTIONS TO VISIBILITY.

AZZ001>003-036-301300-
NORTHWEST ARIZONA

CITY           SKY/WX    TMP DP  RH WIND       PRES   REMARKS
BULLHEAD CITY  CLOUDY    66  37  34 N10       29.68R
KINGMAN        MOCLDY    53  37  54 S10       29.72S
6HR MIN TEMP:  52; 6HR MAX TEMP:  60;

$$

AZZ004>008-015-016-018-301300-
NORTH CENTRAL ARIZONA

CITY           SKY/WX    TMP DP  RH WIND       PRES   REMARKS
GRAND CANYON   CLOUDY    41  33  73 SE7       29.83F
6HR MIN TEMP:  34; 6HR MAX TEMP:  41; 6HR PCP: TRACE;

WILLIAMS       CLOUDY    37  34  87 SE7       29.91F WCI  32
PRESCOTT       MOCLDY    47  36  65 SE7       29.81F
6HR MIN TEMP:  45; 6HR MAX TEMP:  53;

FLAGSTAFF      CLOUDY    36  35  96 S3        29.86F
6HR MIN TEMP:  33; 6HR MAX TEMP:  38; 6HR PCP:  0.01;

PAYSON         MOCLDY    45  39  81 CALM      29.87F
PAGE           CLOUDY    51  39  63 CALM      29.81F
6HR MIN TEMP:  51; 6HR MAX TEMP:  55; 6HR PCP: TRACE;

$$

AZZ009>014-017-301300-
NORTHEAST ARIZONA

CITY           SKY/WX    TMP DP  RH WIND       PRES   REMARKS
WINSLOW        CLOUDY    46  37  71 E5        29.84S
6HR MIN TEMP:  43; 6HR MAX TEMP:  50;

SAINT JOHNS    CLOUDY    43  37  79 NE6       29.87S
6HR MIN TEMP:  41; 6HR MAX TEMP:  45; 6HR PCP:  0.03;

WINDOW ROCK    PTCLDY    34  32  92 CALM      29.88F
6HR MIN TEMP:  33; 6HR MAX TEMP:  41;

SHOW LOW       PTCLDY    37  32  81 S12       29.90S WCI  30
$$

AZZ023-301300-
GREATER PHOENIX AREA

CITY           SKY/WX    TMP DP  RH WIND       PRES   REMARKS
PHOENIX        PTCLDY    65  36  34 NE7       29.74R
6HR MIN TEMP:  64; 6HR MAX TEMP:  73;

BUCKEYE        CLEAR     55  36  47 CALM      29.75S
LUKE AFB       CLEAR     64  41  42 SE5       29.73R
6HR MIN TEMP:  63; 6HR MAX TEMP:  69;

DEER VALLEY    PTCLDY    63  38  39 CALM      29.75R
6HR MIN TEMP:  62; 6HR MAX TEMP:  69;

SCOTTSDALE     PTCLDY    62  38  40 CALM      29.77R
6HR MIN TEMP:  62; 6HR MAX TEMP:  72;

MESA-GATEWAY   PTCLDY    61  37  41 SE6       29.76S
$$

AZZ027-028-301300-
SOUTHWEST MARICOPA COUNTY AND PINAL COUNTY

CITY           SKY/WX    TMP DP  RH WIND       PRES   REMARKS
CASA GRANDE    CLEAR     55  34  44 NE6       29.78S
6HR MIN TEMP:  55; 6HR MAX TEMP:  64;

GILA BEND      FAIR      61  33  35 SE7       29.71F
6HR MIN TEMP:  58; 6HR MAX TEMP:  70;

$$

AZZ503-504-507>509-301300-
SOUTHEAST ARIZONA

CITY           SKY/WX    TMP DP  RH WIND       PRES   REMARKS
TUCSON         CLEAR     55  33  43 SE10      29.84F
6HR MIN TEMP:  55; 6HR MAX TEMP:  64;

DAVIS-MONTHAN  CLEAR     53  33  47 SE9       29.82F
6HR MIN TEMP:  53; 6HR MAX TEMP:  62;

NOGALES        CLEAR     45  33  63 CALM      29.87F
6HR MIN TEMP:  43; 6HR MAX TEMP:  53;

SIERRA VISTA   CLEAR     50  32  51 S6        29.89F
6HR MIN TEMP:  48; 6HR MAX TEMP:  55;

DOUGLAS        CLEAR     44  27  51 E6        29.89F
6HR MIN TEMP:  42; 6HR MAX TEMP:  54;

SAFFORD        CLEAR     46  28  49 CALM      29.82F
6HR MIN TEMP:  46; 6HR MAX TEMP:  59;

$$

AZZ020-021-025-026-031-301300-
SOUTHWEST ARIZONA

CITY           SKY/WX    TMP DP  RH WIND       PRES   REMARKS
YUMA           CLEAR     64  54  69 SE12      29.68F
6HR MIN TEMP:  64; 6HR MAX TEMP:  70;

$$

CAZ031-033-041-043-047-048-061-301300-
SOUTHERN CALIFORNIA

CITY           SKY/WX    TMP DP  RH WIND       PRES   REMARKS
DOWNTOWN L.A.  CLOUDY    57  50  77 CALM      29.83F
6HR MIN TEMP:  56; 6HR MAX TEMP:  58;

L.A. AIRPORT   CLOUDY    57  49  74 S7        29.83F
6HR MIN TEMP:  55; 6HR MAX TEMP:  57;

SAN DIEGO      CLOUDY    59  49  69 S16       29.88F
6HR MIN TEMP:  59; 6HR MAX TEMP:  61; 6HR PCP: TRACE;

BURBANK        CLOUDY    54  49  83 VRB5      29.82F
6HR MIN TEMP:  54; 6HR MAX TEMP:  57;

ONTARIO        CLOUDY    54  51  90 W6        29.82F
6HR MIN TEMP:  54; 6HR MAX TEMP:  57; 6HR PCP: TRACE;

RIVERSIDE      CLOUDY    56  51  84 N3        29.82F
6HR MIN TEMP:  56; 6HR MAX TEMP:  57;

PALM SPRINGS   CLEAR     64  46  52 W13       29.68R
6HR MIN TEMP:  62; 6HR MAX TEMP:  70;

EL CENTRO NAS  CLEAR    N/A N/A N/A W25G32    29.70F
IMPERIAL       CLEAR     64  41  42 W16       29.68S
6HR MIN TEMP:  64; 6HR MAX TEMP:  71;

BLYTHE         CLEAR     63  48  58 S8        29.68S
6HR MIN TEMP:  63; 6HR MAX TEMP:  73;

NEEDLES        CLEAR     68  38  33 W12       29.65S
6HR MIN TEMP:  68; 6HR MAX TEMP:  76;

$$

NVZ020-UTZ003-301300-
SOUTHERN NEVADA-UTAH

CITY           SKY/WX    TMP DP  RH WIND       PRES   REMARKS
LAS VEGAS      LGT RAIN  52  41  66 NW23G33   29.70S
6HR MIN TEMP:  52; 6HR MAX TEMP:  71; 6HR PCP: TRACE;

SALT LAKE CITY MOCLDY    44  40  85 SW6       29.87S
6HR MIN TEMP:  44; 6HR MAX TEMP:  49;

$$

NMZ009-TXZ055-301300-
NEW MEXICO-WEST TEXAS

CITY           SKY/WX    TMP DP  RH WIND       PRES   REMARKS
ALBUQUERQUE    CLOUDY    44  36  73 SW3       29.87S
6HR MIN TEMP:  42; 6HR MAX TEMP:  48;

EL PASO        PTCLDY    56  29  35 W6        29.86S
6HR MIN TEMP:  54; 6HR MAX TEMP:  63;

$$


........................KEY........................
SKY/WX - SKY CONDITION/WEATHER
TMP    - TEMPERATURE IN FAHRENHEIT
DP     - DEW POINT IN FAHRENHEIT
RH     - RELATIVE HUMIDITY IN PERCENT
WIND   - DIRECTION AND SPEED IN MILES PER HOUR (MPH)
VRB    - VARIABLE WIND DIRECTION
PRES   - MEAN SEA LEVEL PRESSURE IN INCHES OF MERCURY
         F - FALLING PRESSURE   R - RISING PRESSURE
         S - STEADY PRESSURE
VSB    - VISIBILITY IN MILES
HX     - HEAT INDEX IN FAHRENHEIT
WCI    - WIND CHILL INDEX IN FAHRENHEIT
TC     - TEMPERATURE IN CELSIUS WHICH IS ALSO KNOWN AS
         TEMPERATURE IN CENTIGRADE
AFB    - AIR FORCE BASE
         LUKE AFB IS LUKE AIR FORCE BASE
         DAVIS-MONTHAN IS DAVIS-MONTHAN AIR FORCE BASE
NAS    - NAVAL AIR STATION
         EL CENTRO NAS IS EL CENTRO NAVAL AIR STATION
N/A    - NOT AVAILABLE





USA.gov is the U.S. government's official web portal to all federal, state and local government web resources and services.